Tiempo cada hora Dabrowiec

Hoy, 4 Agosto, Miércoles

Tiempo Temperatura Precipitaciones Viento Presión Humedad
00:00 +15°C° 0.1 mm 1 mps 730 mmHg 80%
01:00 +15°C° 0.1 mm 1 mps 730 mmHg 82%
02:00 +15°C° 0 mm 1 mps 730 mmHg 82%
03:00 +15°C° 0 mm 1 mps 730 mmHg 83%
04:00 +14°C° 0 mm 1 mps 729 mmHg 83%
05:00 +15°C° 0 mm 1 mps 730 mmHg 82%
06:00 +16°C° 0 mm 2 mps 730 mmHg 80%
07:00 +17°C° 0 mm 2 mps 730 mmHg 79%
08:00 +17°C° 0.2 mm 2 mps 730 mmHg 82%
09:00 +17°C° 0.2 mm 2 mps 730 mmHg 84%
10:00 +16°C° 0.2 mm 1 mps 731 mmHg 87%
11:00 +18°C° 0 mm 1 mps 731 mmHg 84%
12:00 +19°C° 0 mm 1 mps 731 mmHg 80%
13:00 +19°C° 0 mm 1 mps 731 mmHg 77%
14:00 +20°C° 0 mm 1 mps 730 mmHg 75%
15:00 +20°C° 0 mm 1 mps 730 mmHg 73%
16:00 +19°C° 0 mm 0 mps 730 mmHg 71%
17:00 +20°C° 0.1 mm 1 mps 730 mmHg 75%
18:00 +19°C° 0.1 mm 1 mps 730 mmHg 79%
19:00 +18°C° 0.1 mm 1 mps 729 mmHg 83%
20:00 +16°C° 0 mm 1 mps 729 mmHg 86%
21:00 +16°C° 0 mm 1 mps 729 mmHg 89%
22:00 +15°C° 0 mm 1 mps 730 mmHg 92%
23:00 +15°C° 0 mm 1 mps 729 mmHg 92%

Mañana, 5 Agosto, Jueves

Tiempo Temperatura Precipitaciones Viento Presión Humedad
00:00 +14°C° 0 mm 1 mps 729 mmHg 93%
01:00 +14°C° 0 mm 1 mps 729 mmHg 94%
02:00 +14°C° 0 mm 1 mps 728 mmHg 94%
03:00 +14°C° 0 mm 1 mps 728 mmHg 95%
04:00 +14°C° 0 mm 1 mps 728 mmHg 95%
05:00 +14°C° 0 mm 2 mps 728 mmHg 92%
06:00 +15°C° 0 mm 2 mps 728 mmHg 89%
07:00 +16°C° 0 mm 3 mps 728 mmHg 86%
08:00 +16°C° 0.2 mm 3 mps 728 mmHg 87%
09:00 +16°C° 0.2 mm 3 mps 727 mmHg 89%
10:00 +16°C° 0.2 mm 2 mps 727 mmHg 90%
11:00 +16°C° 0.3 mm 3 mps 727 mmHg 91%
12:00 +16°C° 0.3 mm 3 mps 727 mmHg 92%
13:00 +16°C° 0.3 mm 3 mps 727 mmHg 93%
14:00 +16°C° 0.5 mm 3 mps 726 mmHg 94%
15:00 +16°C° 0.5 mm 3 mps 726 mmHg 95%
16:00 +16°C° 0.5 mm 3 mps 725 mmHg 96%
17:00 +16°C° 0.7 mm 3 mps 725 mmHg 96%
18:00 +16°C° 0.7 mm 3 mps 725 mmHg 97%
19:00 +16°C° 0.7 mm 3 mps 724 mmHg 98%
20:00 +16°C° 0.1 mm 3 mps 724 mmHg 98%
21:00 +16°C° 0.1 mm 2 mps 724 mmHg 98%
22:00 +16°C° 0.1 mm 1 mps 724 mmHg 98%
23:00 +16°C° 0.1 mm 1 mps 723 mmHg 98%

Pasado mañana, 6 Agosto, Viernes

Tiempo Temperatura Precipitaciones Viento Presión Humedad
00:00 +16°C° 0.1 mm 1 mps 723 mmHg 98%
01:00 +15°C° 0.1 mm 0 mps 723 mmHg 98%
02:00 +16°C° 0.5 mm 1 mps 723 mmHg 98%
03:00 +15°C° 0.5 mm 2 mps 723 mmHg 98%
04:00 +15°C° 0.5 mm 2 mps 722 mmHg 98%
05:00 +14°C° 0.2 mm 3 mps 722 mmHg 98%
06:00 +14°C° 0.2 mm 3 mps 723 mmHg 97%
07:00 +14°C° 0.2 mm 3 mps 723 mmHg 97%
08:00 +14°C° 0.1 mm 4 mps 723 mmHg 96%
09:00 +14°C° 0.1 mm 4 mps 724 mmHg 96%
10:00 +14°C° 0.1 mm 4 mps 724 mmHg 95%
11:00 +15°C° 0.1 mm 5 mps 724 mmHg 92%
12:00 +15°C° 0.1 mm 5 mps 724 mmHg 89%
13:00 +16°C° 0.1 mm 5 mps 725 mmHg 86%
14:00 +16°C° 0 mm 5 mps 725 mmHg 82%
15:00 +18°C° 0 mm 4 mps 725 mmHg 79%
16:00 +18°C° 0 mm 4 mps 725 mmHg 75%
17:00 +17°C° 0 mm 3 mps 726 mmHg 79%
18:00 +16°C° 0 mm 3 mps 726 mmHg 82%
19:00 +16°C° 0 mm 2 mps 726 mmHg 86%
20:00 +15°C° 0 mm 2 mps 726 mmHg 87%
21:00 +14°C° 0 mm 1 mps 726 mmHg 89%
22:00 +13°C° 0 mm 1 mps 727 mmHg 90%
23:00 +13°C° 0 mm 1 mps 727 mmHg 90%

7 Agosto, Sábado

Tiempo Temperatura Precipitaciones Viento Presión Humedad
00:00 +13°C° 0 mm 1 mps 727 mmHg 90%
01:00 +13°C° 0 mm 1 mps 727 mmHg 90%
02:00 +13°C° 0 mm 1 mps 727 mmHg 90%
03:00 +13°C° 0 mm 1 mps 727 mmHg 90%
04:00 +13°C° 0 mm 1 mps 727 mmHg 90%
05:00 +14°C° 0 mm 1 mps 727 mmHg 86%
06:00 +16°C° 0 mm 1 mps 728 mmHg 82%
07:00 +18°C° 0 mm 1 mps 728 mmHg 78%
08:00 +19°C° 0 mm 2 mps 728 mmHg 72%
09:00 +21°C° 0 mm 2 mps 728 mmHg 67%
10:00 +24°C° 0 mm 2 mps 728 mmHg 61%
11:00 +25°C° 0 mm 2 mps 728 mmHg 57%
12:00 +26°C° 0 mm 3 mps 728 mmHg 53%
13:00 +27°C° 0 mm 3 mps 728 mmHg 49%
14:00 +27°C° 0 mm 3 mps 728 mmHg 48%
15:00 +27°C° 0 mm 2 mps 728 mmHg 47%
16:00 +28°C° 0 mm 2 mps 728 mmHg 46%
17:00 +26°C° 0 mm 2 mps 728 mmHg 53%
18:00 +24°C° 0 mm 2 mps 728 mmHg 60%
19:00 +22°C° 0 mm 1 mps 728 mmHg 66%
20:00 +20°C° 0 mm 2 mps 728 mmHg 70%
21:00 +20°C° 0 mm 3 mps 728 mmHg 74%
22:00 +19°C° 0 mm 3 mps 728 mmHg 78%
23:00 +18°C° 0 mm 3 mps 727 mmHg 80%

8 Agosto, Domingo

Tiempo Temperatura Precipitaciones Viento Presión Humedad
00:00 +18°C° 0 mm 3 mps 727 mmHg 81%
01:00 +17°C° 0 mm 3 mps 727 mmHg 83%
02:00 +18°C° 0 mm 3 mps 727 mmHg 79%
03:00 +18°C° 0 mm 3 mps 727 mmHg 76%
04:00 +18°C° 0 mm 3 mps 727 mmHg 73%
05:00 +19°C° 0 mm 3 mps 727 mmHg 72%
06:00 +19°C° 0 mm 3 mps 728 mmHg 72%
07:00 +20°C° 0 mm 4 mps 728 mmHg 72%
08:00 +20°C° 0 mm 4 mps 729 mmHg 72%
09:00 +21°C° 0 mm 5 mps 730 mmHg 72%
10:00 +22°C° 0 mm 5 mps 730 mmHg 71%
11:00 +23°C° 0 mm 5 mps 731 mmHg 67%
12:00 +23°C° 0 mm 4 mps 731 mmHg 62%
13:00 +25°C° 0 mm 3 mps 731 mmHg 58%
14:00 +25°C° 0 mm 3 mps 731 mmHg 56%
15:00 +26°C° 0 mm 2 mps 732 mmHg 54%
16:00 +26°C° 0 mm 1 mps 732 mmHg 53%
17:00 +24°C° 0 mm 1 mps 732 mmHg 59%
18:00 +23°C° 0 mm 1 mps 732 mmHg 64%
19:00 +22°C° 0 mm 1 mps 732 mmHg 70%
20:00 +21°C° 0 mm 1 mps 732 mmHg 71%
21:00 +19°C° 0 mm 0 mps 733 mmHg 72%
22:00 +18°C° 0 mm 0 mps 733 mmHg 73%
23:00 +18°C° 0 mm 0 mps 733 mmHg 75%

9 Agosto, Lunes

Tiempo Temperatura Precipitaciones Viento Presión Humedad
00:00 +18°C° 0 mm 0 mps 733 mmHg 76%
01:00 +17°C° 0 mm 0 mps 733 mmHg 78%
02:00 +17°C° 0.1 mm 0 mps 733 mmHg 79%
03:00 +17°C° 0.1 mm 0 mps 734 mmHg 81%
04:00 +17°C° 0.1 mm 0 mps 734 mmHg 82%
05:00 +17°C° 0.1 mm 0 mps 734 mmHg 80%
06:00 +20°C° 0.1 mm 1 mps 734 mmHg 77%
07:00 +21°C° 0.1 mm 1 mps 734 mmHg 74%
08:00 +23°C° 0.1 mm 1 mps 735 mmHg 69%
09:00 +24°C° 0.1 mm 1 mps 735 mmHg 64%
10:00 +23°C° 0.1 mm 0 mps 735 mmHg 59%
11:00 +26°C° 0 mm 1 mps 735 mmHg 57%
12:00 +27°C° 0 mm 1 mps 735 mmHg 54%
13:00 +27°C° 0 mm 1 mps 734 mmHg 51%
14:00 +27°C° 0 mm 1 mps 734 mmHg 52%
15:00 +27°C° 0 mm 1 mps 734 mmHg 53%
16:00 +27°C° 0 mm 2 mps 734 mmHg 53%
17:00 +25°C° 0 mm 2 mps 734 mmHg 59%
18:00 +24°C° 0 mm 2 mps 733 mmHg 65%
19:00 +23°C° 0 mm 2 mps 733 mmHg 70%
20:00 +22°C° 0.1 mm 1 mps 733 mmHg 72%
21:00 +21°C° 0.1 mm 1 mps 733 mmHg 74%
22:00 +20°C° 0.1 mm 1 mps 733 mmHg 76%
23:00 +20°C° 0.6 mm 1 mps 733 mmHg 79%
Mostrar más

Necesitamos Su Consentimiento

Meteoprog y nuestros Proveedores de Servicios pueden almacenar y acceder a sus datos personales como cookies, identificadores de dispositivo u otras tecnologías similares de su dispositivo y procesar dichos datos para personalizar contenido y anuncios, además de ofrecer funciones de redes sociales y analizar el tráfico.

  • Almacenar y/o acceder a información en su dispositivo

    Se puede almacenar o acceder a cookies, identificadores de dispositivo u otra información de su dispositivo para los fines anteriormente indicados.

  • Anuncios y contenido personalizados, medición de anuncios y contenido, percepciones del público, y desarrollo de productos

    Los anuncios y el contenido pueden personalizarse en base a su perfil. Se pueden añadir más datos para personalizar mejor los anuncios y contenidos. Se puede medir el rendimiento de los anuncios y contenidos. Se puede obtener la percepción sobre el público que ha visto los anuncios y contenidos. Dichos datos pueden usarse para desarrollar o mejorar la experiencia del usuario, sistemas y software.

Al hacer clic en ‘Estoy De Acuerdo’ usted permitirá el uso de las cookies, identificadores de dispositivo, balizas web u otras tecnologías similares indicadas. Su configuración puede cambiarse desde el navegador de su dispositivo.

Para ciertos fines, los intereses legítimos pueden ser considerados por encima del consentimiento. Puede leer más sobre ello en nuestra Política de Privacidad y Cookies.